[[{"header":{"parameterUnit":"m.s-1","parameterCategory":1,"la1":30.2991,"la2":30.254,"lo1":-89.0895,"lo2":-89.0444,"dy":0.0017,"dx":0.0017,"nx":28,"ny":28,"refTime":"2023-07-20T03:00:00:Z","depth":0,"parameterNumber":2,"parameterNumberName":"U-component_of_WINDS"},"data":[0,0,0,0,0,0,0,0,0,0,0,0,0,0,0,0,0,0,0,0,0,0,0,0,0,0,0,0,0,0,0,0,0,0,0,0,0,0,0,0,0,0,0,0,0,0,0,0,0,0,0,0,0,0,0,0,0,0,5.052,5.0521,0,5.0625,5.0626,5.0627,5.0544,5.0541,5.0537,5.0534,5.064,5.0646,5.0652,0,0,0,0,0,0,0,0,0,0,0,0,0,5.0245,5.0251,5.052,5.0521,5.0523,5.0625,5.0626,5.0627,5.0545,5.054,5.0536,5.0532,5.0638,5.0645,5.0653,0,0,0,0,0,0,0,0,0,0,0,0,0,5.0359,5.0253,5.052,5.0494,5.0492,5.0624,5.0626,5.0628,5.0546,5.054,5.0535,5.053,5.0636,5.0645,5.0654,5.0817,0,0,5.0682,5.0686,0,0,0,0,0,0,0,0,5.0352,5.0369,5.0496,5.0496,5.0495,5.0566,5.0568,5.0691,5.0547,5.0525,5.0534,5.0527,5.062,5.063,5.0661,5.0822,5.0826,5.0683,5.0688,5.0692,5.0695,0,0,0,0,0,0,0,5.0345,5.0364,5.0561,5.0498,5.0497,5.0476,5.0486,5.0591,5.0601,5.0527,5.0521,5.0535,5.0618,5.0652,5.0663,5.0828,5.0682,5.069,5.0696,5.07,5.1122,5.1127,0,0,0,0,0,0,5.034,5.0358,5.0558,5.0565,5.0409,5.0485,5.0496,5.0548,5.06,5.0602,5.0539,5.053,5.0639,5.0652,5.0666,5.0856,5.0692,5.0701,5.0706,5.1116,5.1123,5.1129,0,0,0,0,0,0,5.0334,5.0358,5.0554,5.046,5.0483,5.0495,5.0554,5.0553,5.0587,5.0609,5.061,5.0572,5.0636,5.0653,5.0779,5.0859,5.0705,5.0713,5.1109,5.1118,5.1126,5.1241,0,0,0,0,0,0,5.0327,5.0357,5.042,5.0462,5.0488,5.0666,5.0559,5.0559,5.0604,5.0593,5.064,5.0643,5.0633,5.0765,5.0788,5.0869,5.072,5.1102,5.1113,5.1123,5.123,5.1252,5.1271,0,0,0,0,0,5.0317,5.0449,5.0424,5.0448,5.0568,5.0671,5.0686,5.0672,5.0611,5.0673,5.0686,5.0642,5.0847,5.0779,5.0804,5.0889,5.1097,5.111,5.1123,5.122,5.1248,5.1271,0,0,0,0,0,0,5.0417,5.0454,5.0426,5.0576,5.0621,5.0657,5.0735,5.0702,5.0765,5.0752,5.0731,5.0743,5.0874,5.0894,5.0817,5.1046,5.0962,5.098,5.1028,5.1054,5.1075,5.1066,5.0728,0,0,0,0,0,5.0457,5.0538,5.0566,5.0695,5.0719,5.0724,5.0768,5.0753,5.0798,5.0817,5.0839,5.0884,5.0958,5.1008,5.1078,5.1233,5.124,5.1303,5.1324,5.1341,5.1356,5.1435,5.1462,5.1171,5.1171,5.1171,0,0,5.0539,5.0569,5.0622,5.0716,5.0749,5.0831,5.074,5.0833,5.0893,5.0831,5.0949,5.0967,5.1016,5.1156,5.1218,5.1177,5.1438,5.1357,5.1371,5.1377,5.1451,5.1478,5.1503,5.118,5.1178,5.1177,0,0,5.073,5.0763,5.0872,5.0906,5.0957,5.0958,5.0985,5.1025,5.1034,5.1153,5.1106,5.1178,5.1308,5.1343,5.1378,5.1579,5.1539,5.1603,5.171,5.1787,5.181,5.183,5.1898,5.1923,5.1618,5.1619,5.1619,0,5.0826,5.095,5.0933,5.1027,5.1068,5.1015,5.1123,5.1158,5.1229,5.1257,5.121,5.1368,5.1398,5.1542,5.1591,5.1623,5.1649,5.1596,5.1808,5.1828,5.1847,5.1911,5.1937,5.1626,5.1625,5.1624,5.1624,0,5.1063,5.1149,5.1231,5.1299,5.135,5.1452,5.1448,5.1501,5.1481,5.1487,5.1606,5.1639,5.1712,5.1746,5.1729,5.1888,5.186,5.1811,5.1725,5.1882,5.1941,5.1966,5.1636,5.1633,5.1631,5.163,0,0,5.132,5.1376,5.1406,5.1434,5.1485,5.155,5.1648,5.1719,5.1763,5.1814,5.1893,5.2002,5.1956,5.1996,5.1981,5.205,5.2201,5.1991,5.1992,5.2026,5.2373,5.2407,5.2436,5.2176,5.2181,5.2184,5.2367,0,5.1511,5.1681,5.1666,5.1827,5.1904,5.1853,5.1937,5.1976,5.1984,5.205,5.2058,5.2134,5.207,5.2093,5.2158,5.2169,5.227,5.2156,5.2246,5.225,5.2232,5.2468,5.2505,5.2676,5.2391,5.2395,5.2398,0,5.1756,5.1813,5.198,5.2015,5.2047,5.2124,5.2185,5.225,5.2292,5.2292,5.2335,5.2308,5.2404,5.2318,5.2447,5.237,5.2406,5.2417,5.2423,5.2428,5.2331,5.2476,5.2731,5.2755,5.2436,5.2433,5.243,0,5.1922,5.2041,5.2155,5.2181,5.2226,5.228,5.2301,5.2338,5.238,5.2435,5.2461,5.2527,5.2561,5.2612,5.2601,5.2541,5.2732,5.2647,5.2732,5.2733,5.2773,5.277,5.3034,5.2803,5.2803,5.2802,5.2801,0,5.2134,5.2237,5.2229,5.2299,5.2412,5.2395,5.2507,5.2521,5.2554,5.2624,5.2585,5.2651,5.2636,5.2701,5.2695,5.28,5.2817,5.2818,5.2814,5.282,5.2819,5.2841,5.2827,5.2809,5.2807,5.2806,5.2805,0,5.2337,5.2337,5.2457,5.2489,5.2499,5.2581,5.2607,5.2671,5.2675,5.2764,5.2784,5.279,5.2865,5.286,5.2945,5.294,5.3069,5.3054,5.3055,5.305,5.3134,5.3125,5.3418,5.3454,5.3204,5.3206,5.3208,0,5.2471,5.2549,5.2588,5.2632,5.2656,5.2729,5.2771,5.2756,5.2801,5.2852,5.291,5.2981,5.3037,5.3158,5.3169,5.3232,5.3215,5.3314,5.3224,5.3226,5.3211,5.3205,5.3211,5.333,5.3333,5.3335,5.3337,0,5.2707,5.2702,5.2765,5.2827,5.2878,5.2927,5.297,5.3009,5.2997,5.305,5.3125,5.3168,5.3253,5.3323,5.3383,5.3402,5.3367,5.3365,5.3388,5.3392,5.3388,5.3387,5.3098,5.3358,5.3356,5.3355,5.3353,5.3353,5.2877,5.2942,5.2979,5.3049,5.308,5.3121,5.3182,5.3193,5.3255,5.3323,5.331,5.3393,5.3429,5.3506,5.3531,5.3595,5.3559,5.3593,5.3601,5.3609,5.3616,5.3381,5.3606,5.3606,5.3605,5.3605,5.3604,0,5.3107,5.3128,5.3192,5.3254,5.3308,5.3271,5.3317,5.3364,5.3438,5.3475,5.3529,5.3614,5.368,5.3695,5.3758,5.3806,5.3791,5.3822,5.3817,5.3821,5.3647,5.3619,5.3833,5.3833,5.3833,5.3833,5.3833,5.3833,5.3233,5.334,5.3339,5.3459,5.3478,5.3559,5.3588,5.3624,5.3653,5.3749,5.3803,5.3813,5.384,5.3904,5.3962,5.3965,5.3988,5.4025,5.4021,5.3857,5.3834,5.3812,5.3785,5.4031,5.4031,5.4189,5.419,5.4192]},{"header":{"parameterUnit":"m.s-1","parameterCategory":1,"la1":30.2991,"la2":30.254,"lo1":-89.0895,"lo2":-89.0444,"dy":0.0017,"dx":0.0017,"nx":28,"ny":28,"refTime":"2023-07-20T03:00:00:Z","depth":0,"parameterNumber":3,"parameterNumberName":"V-component_of_WINDS"},"data":[0,0,0,0,0,0,0,0,0,0,0,0,0,0,0,0,0,0,0,0,0,0,0,0,0,0,0,0,0,0,0,0,0,0,0,0,0,0,0,0,0,0,0,0,0,0,0,0,0,0,0,0,0,0,0,0,0,0,2.0963,2.0963,0,2.1049,2.105,2.1051,2.1042,2.1041,2.104,2.1038,2.1126,2.113,2.1133,0,0,0,0,0,0,0,0,0,0,0,0,0,2.0787,2.079,2.0962,2.0964,2.0965,2.1049,2.105,2.1051,2.1043,2.1041,2.1039,2.1038,2.1125,2.1129,2.1133,0,0,0,0,0,0,0,0,0,0,0,0,0,2.0867,2.0792,2.0962,2.097,2.0972,2.1049,2.105,2.1052,2.1043,2.1041,2.1039,2.1037,2.1123,2.1129,2.1134,2.1208,0,0,2.115,2.1153,0,0,0,0,0,0,0,0,2.0863,2.0874,2.0968,2.097,2.0972,2.1033,2.102,2.1104,2.1043,2.1016,2.1038,2.1036,2.1097,2.1104,2.1125,2.1212,2.1216,2.1151,2.1154,2.1157,2.1158,0,0,0,0,0,0,0,2.0857,2.087,2.0997,2.097,2.0972,2.0969,2.0978,2.1036,2.1067,2.1018,2.1018,2.1028,2.1097,2.112,2.1127,2.1217,2.1151,2.1156,2.1159,2.1161,2.1366,2.1369,0,0,0,0,0,0,2.085,2.0866,2.0994,2.0999,2.0911,2.0974,2.0984,2.1015,2.1066,2.1072,2.103,2.1027,2.1111,2.112,2.113,2.1218,2.1157,2.1162,2.1165,2.1364,2.1367,2.1369,0,0,0,0,0,0,2.0846,2.0862,2.099,2.0932,2.0948,2.0979,2.1014,2.1018,2.104,2.1075,2.108,2.1047,2.111,2.1122,2.1188,2.1221,2.1164,2.1169,2.1362,2.1365,2.1368,2.1397,0,0,0,0,0,0,2.0841,2.086,2.089,2.0933,2.0952,2.1048,2.1016,2.1021,2.105,2.1048,2.1092,2.1098,2.1109,2.118,2.1193,2.1228,2.1173,2.1359,2.1363,2.1367,2.1393,2.14,2.1407,0,0,0,0,0,2.0835,2.0894,2.0891,2.0907,2.0989,2.105,2.1061,2.1073,2.1053,2.1082,2.1103,2.1096,2.1215,2.1187,2.1202,2.1238,2.1357,2.1362,2.1367,2.139,2.1399,2.1407,0,0,0,0,0,0,2.0854,2.09,2.0897,2.0972,2.1007,2.1049,2.1086,2.1083,2.1124,2.112,2.1134,2.1144,2.121,2.123,2.1198,2.1311,2.1283,2.1291,2.1295,2.1305,2.1311,2.1305,2.1178,0,0,0,0,0,2.0867,2.0914,2.0951,2.1014,2.1031,2.1055,2.1083,2.1089,2.1126,2.114,2.1167,2.1202,2.1247,2.1277,2.1321,2.1395,2.1404,2.1427,2.1434,2.144,2.1447,2.1487,2.1497,2.1386,2.1386,2.1386,0,0,2.0894,2.0925,2.0954,2.1018,2.1046,2.1093,2.1068,2.1119,2.1154,2.1148,2.1212,2.1232,2.1272,2.1342,2.1375,2.1362,2.148,2.1447,2.1451,2.1455,2.1493,2.1503,2.1513,2.1389,2.1389,2.1388,0,0,2.0968,2.0996,2.1051,2.1079,2.1121,2.1137,2.1149,2.1191,2.1204,2.1268,2.1264,2.1305,2.1383,2.1411,2.1436,2.1517,2.1512,2.1531,2.1568,2.1607,2.1615,2.1623,2.1652,2.1662,2.1538,2.1538,2.1538,0,2.0997,2.1068,2.1079,2.1131,2.1159,2.1155,2.1209,2.1236,2.129,2.1309,2.1293,2.139,2.1417,2.1493,2.1512,2.1533,2.1547,2.1527,2.1613,2.1621,2.1629,2.1656,2.1667,2.154,2.154,2.1539,2.1539,0,2.11,2.115,2.1188,2.1241,2.1273,2.1325,2.1344,2.1374,2.1377,2.1394,2.1458,2.1489,2.1538,2.1557,2.156,2.1633,2.1623,2.161,2.1583,2.1641,2.1667,2.1677,2.1543,2.1542,2.1541,2.1541,0,0,2.119,2.1247,2.1261,2.1283,2.1329,2.1367,2.1418,2.1466,2.1492,2.1528,2.1571,2.1636,2.1624,2.1652,2.1658,2.1692,2.1753,2.1674,2.1675,2.1687,2.1833,2.1842,2.1854,2.1749,2.1751,2.1753,2.1829,0,2.1268,2.136,2.1371,2.1453,2.1497,2.1493,2.1538,2.157,2.1586,2.1625,2.1643,2.1688,2.1669,2.1685,2.1718,2.1738,2.1782,2.1733,2.1789,2.179,2.1779,2.1868,2.1879,2.195,2.184,2.1841,2.1843,0,2.1372,2.1411,2.1497,2.1534,2.1554,2.1594,2.1637,2.1676,2.1711,2.172,2.175,2.1751,2.1803,2.1773,2.1844,2.181,2.1833,2.1846,2.1849,2.1855,2.182,2.1876,2.1973,2.1983,2.1859,2.1857,2.1856,0,2.1428,2.1502,2.1563,2.1583,2.1628,2.1656,2.1676,2.1709,2.1737,2.1774,2.1792,2.1835,2.1859,2.1892,2.1904,2.1881,2.1974,2.1945,2.1982,2.1982,2.2003,2.2001,2.2104,2.2018,2.2017,2.2017,2.2017,0,2.1514,2.1567,2.1589,2.1626,2.1684,2.1695,2.1752,2.177,2.18,2.184,2.1838,2.1876,2.189,2.1929,2.1939,2.1995,2.2006,2.2014,2.2016,2.2014,2.2013,2.203,2.2025,2.202,2.2019,2.2019,2.2018,0,2.1587,2.1604,2.167,2.1706,2.1717,2.1758,2.1789,2.1824,2.1839,2.1889,2.1902,2.1925,2.1971,2.1986,2.2042,2.2048,2.2114,2.2112,2.2102,2.2102,2.2139,2.2135,2.2256,2.2272,2.2175,2.2176,2.2177,0,2.1641,2.1681,2.1722,2.1749,2.177,2.1813,2.184,2.1852,2.188,2.1922,2.1952,2.1998,2.2035,2.2108,2.2129,2.2171,2.217,2.2209,2.2176,2.2173,2.217,2.2167,2.2171,2.2216,2.2217,2.2217,2.2218,0,2.1735,2.174,2.1781,2.1823,2.1856,2.189,2.1923,2.1945,2.1961,2.1993,2.204,2.2068,2.2124,2.2169,2.2212,2.2231,2.2227,2.2228,2.2239,2.2238,2.223,2.2234,2.2119,2.2225,2.2225,2.2224,2.2224,2.2223,2.18,2.1834,2.1868,2.1912,2.1938,2.1968,2.2003,2.2021,2.2061,2.2107,2.2111,2.2161,2.2193,2.225,2.2271,2.231,2.2299,2.2315,2.2319,2.2322,2.2325,2.2224,2.2318,2.2317,2.2317,2.2317,2.2317,0,2.1892,2.1913,2.1954,2.2,2.2034,2.2027,2.2062,2.2091,2.2135,2.2166,2.2202,2.2255,2.2297,2.2321,2.2363,2.239,2.2389,2.24,2.2399,2.2403,2.2333,2.2319,2.24,2.24,2.24,2.24,2.24,2.24,2.1945,2.2003,2.2013,2.2083,2.2103,2.2153,2.2173,2.22,2.2225,2.2284,2.2319,2.2334,2.2361,2.2405,2.2444,2.2449,2.2465,2.2478,2.2482,2.2416,2.2408,2.24,2.2387,2.2481,2.2481,2.2549,2.255,2.255]}]]